Blackwell, OK

11:39 PM CDT on August 28, 2016 (GMT -0500)
Blackwell

Weather History for KBKN - March, 2013

Change the Weather History Date:

Thursday, March 7, 2013

  Actual Average (KPNC) Record (KPNC)
Temperature  
Mean Temperature 50 °F -  
Max Temperature 69 °F 60 °F 83 °F (1974)
Min Temperature 32 °F 35 °F 18 °F (1948)
Degree Days  
Heating Degree Days 14    
Moisture  
Dew Point 25 °F    
Average Humidity 44    
Maximum Humidity 75    
Minimum Humidity 19    
Precipitation  
Precipitation 0.00 in - - ()
Sea Level Pressure  
Sea Level Pressure 30.08 in    
Wind  
Wind Speed 13 mph (SE)    
Max Wind Speed 29 mph    
Max Gust Speed 33 mph    
Visibility 10 miles    
Events Thunderstorm    
Averages and records for this station are not official NWS values.
T = Trace of Precipitation, MM = Missing Value Source: NWS Daily Summary

Daily Weather History Graph

Daily Weather History Graph

Search for Another Location

Airport or City:

Trip Planner

Search our weather history database for the weather conditions in past years. The results will help you decide how hot, cold, wet, or windy it might be!

Date:

Astronomy

Mar. 07, 2013 Rise Set
Actual Time 6:51 AM CST 6:29 PM CST
Civil Twilight 6:25 AM CST 6:55 PM CST
Nautical Twilight 5:55 AM CST 7:25 PM CST
Astronomical Twilight 5:25 AM CST 7:55 PM CST
Moon 3:46 AM CST (3/7) 2:24 PM CST (3/7)
Length of Visible Light 12h 30m
Length of Day
11h 38m
Waning Crescent, 20% of the Moon is Illuminated
Mar 7
Waning Crescent
Mar 11
New
Mar 19
First Quarter
Mar 27
Full
Apr 2
Last Quarter

Hourly Weather History & Observations

Time (CST) Temp. Windchill Dew Point Humidity Pressure Visibility Wind Dir Wind Speed Gust Speed Precip Events Conditions
12:15 AM 35.6 °F 28.6 °F 23.0 °F 60% 30.18 in 10.0 mi ESE 9.2 mph - N/A   Partly Cloudy
12:35 AM 35.6 °F 28.6 °F 23.0 °F 60% 30.17 in 10.0 mi East 9.2 mph - N/A Thunderstorm Mostly Cloudy
12:55 AM 35.6 °F 29.9 °F 23.0 °F 60% 30.17 in 10.0 mi East 6.9 mph - N/A   Overcast
1:15 AM 35.6 °F 29.2 °F 23.0 °F 60% 30.17 in 10.0 mi East 8.1 mph - N/A   Mostly Cloudy
1:35 AM 35.6 °F 29.2 °F 24.8 °F 65% 30.17 in 10.0 mi ESE 8.1 mph - N/A   Scattered Clouds
1:55 AM 33.8 °F 26.4 °F 24.8 °F 70% 30.17 in 10.0 mi ESE 9.2 mph - N/A   Scattered Clouds
2:15 AM 33.8 °F 27.0 °F 24.8 °F 70% 30.17 in 10.0 mi ESE 8.1 mph - N/A   Mostly Cloudy
2:35 AM 32.0 °F 24.8 °F 24.8 °F 75% 30.17 in 10.0 mi ESE 8.1 mph - N/A   Mostly Cloudy
2:55 AM 33.8 °F 26.4 °F 24.8 °F 70% 30.16 in 10.0 mi ESE 9.2 mph - N/A   Mostly Cloudy
3:15 AM 33.8 °F 26.4 °F 24.8 °F 70% 30.15 in 10.0 mi ESE 9.2 mph - N/A   Mostly Cloudy
3:35 AM 32.0 °F 24.2 °F 24.8 °F 75% 30.15 in 10.0 mi ESE 9.2 mph - N/A   Scattered Clouds
3:55 AM 32.0 °F 24.2 °F 24.8 °F 75% 30.14 in 10.0 mi ESE 9.2 mph - N/A   Partly Cloudy
4:15 AM 32.0 °F 24.2 °F 24.8 °F 75% 30.14 in 10.0 mi ESE 9.2 mph - N/A   Scattered Clouds
4:35 AM 32.0 °F 23.6 °F 24.8 °F 75% 30.13 in 10.0 mi ESE 10.4 mph - N/A   Scattered Clouds
4:55 AM 32.0 °F 23.6 °F 24.8 °F 75% 30.13 in 10.0 mi ESE 10.4 mph - N/A   Partly Cloudy
5:15 AM 33.8 °F 25.8 °F 24.8 °F 70% 30.12 in 10.0 mi ESE 10.4 mph - N/A   Partly Cloudy
5:35 AM 33.8 °F 25.8 °F 24.8 °F 70% 30.11 in 10.0 mi ESE 10.4 mph - N/A   Scattered Clouds
5:55 AM 33.8 °F 25.3 °F 24.8 °F 70% 30.11 in 10.0 mi ESE 11.5 mph - N/A   Scattered Clouds
6:15 AM 33.8 °F 25.3 °F 23.0 °F 65% 30.11 in 10.0 mi ESE 11.5 mph - N/A   Mostly Cloudy
6:35 AM 33.8 °F 24.8 °F 23.0 °F 65% 30.10 in 10.0 mi ESE 12.7 mph - N/A   Scattered Clouds
6:55 AM 35.6 °F 27.5 °F 23.0 °F 60% 30.11 in 10.0 mi SE 11.5 mph - N/A   Clear
7:15 AM 35.6 °F 27.5 °F 24.8 °F 65% 30.11 in 10.0 mi ESE 11.5 mph - N/A   Clear
7:35 AM 35.6 °F 28.0 °F 24.8 °F 65% 30.12 in 10.0 mi ESE 10.4 mph - N/A   Clear
8:15 AM 39.2 °F 30.5 °F 24.8 °F 56% 30.12 in 10.0 mi SE 16.1 mph 20.7 mph N/A   Clear
8:35 AM 42.8 °F 34.0 °F 23.0 °F 46% 30.12 in 10.0 mi SSE 20.7 mph 25.3 mph N/A   Clear
8:55 AM 44.6 °F 36.9 °F 23.0 °F 43% 30.12 in 10.0 mi SSE 18.4 mph 26.5 mph N/A   Clear
9:15 AM 46.4 °F 38.3 °F 23.0 °F 40% 30.11 in 10.0 mi SSE 23.0 mph 27.6 mph N/A   Clear
9:35 AM 48.2 °F - 23.0 °F 37% 30.10 in 10.0 mi SSE 21.9 mph 27.6 mph N/A   Clear
9:55 AM 50.0 °F - 23.0 °F 35% 30.10 in 10.0 mi SSE 21.9 mph 28.8 mph N/A   Clear
10:15 AM 53.6 °F - 23.0 °F 30% 30.10 in 10.0 mi SSE 21.9 mph 31.1 mph N/A   Clear
10:35 AM 55.4 °F - 23.0 °F 29% 30.10 in 10.0 mi SSE 23.0 mph 28.8 mph N/A   Clear
10:55 AM 57.2 °F - 23.0 °F 27% 30.09 in 10.0 mi SSE 20.7 mph 31.1 mph N/A   Clear
11:15 AM 59.0 °F - 23.0 °F 25% 30.09 in 10.0 mi SSE 26.5 mph 32.2 mph N/A   Clear
11:35 AM 59.0 °F - 23.0 °F 25% 30.09 in 10.0 mi South 23.0 mph 31.1 mph N/A   Clear
11:55 AM 60.8 °F - 23.0 °F 23% 30.09 in 10.0 mi South 25.3 mph - N/A   Clear
12:15 PM 62.6 °F - 23.0 °F 22% 30.08 in 10.0 mi SSE 19.6 mph 31.1 mph N/A   Clear
12:35 PM 62.6 °F - 23.0 °F 22% 30.07 in 10.0 mi South 19.6 mph 31.1 mph N/A   Clear
12:55 PM 64.4 °F - 24.8 °F 22% 30.06 in 10.0 mi South 18.4 mph 28.8 mph N/A   Clear
1:15 PM 66.2 °F - 24.8 °F 21% 30.05 in 10.0 mi South 24.2 mph 32.2 mph N/A   Clear
1:35 PM 66.2 °F - 23.0 °F 19% 30.03 in 10.0 mi South 28.8 mph 33.4 mph N/A   Clear
1:55 PM 66.2 °F - 24.8 °F 21% 30.03 in 10.0 mi South 21.9 mph 31.1 mph N/A   Clear
2:15 PM 66.2 °F - 24.8 °F 21% 30.02 in 10.0 mi South 21.9 mph 28.8 mph N/A   Clear
2:35 PM 66.2 °F - 24.8 °F 21% 30.02 in 10.0 mi South 21.9 mph 31.1 mph N/A   Clear
2:55 PM 68.0 °F - 24.8 °F 20% 30.01 in 10.0 mi South 20.7 mph 26.5 mph N/A   Clear
3:15 PM 68.0 °F - 24.8 °F 20% 30.01 in 10.0 mi South 23.0 mph 28.8 mph N/A   Clear
3:35 PM 68.0 °F - 26.6 °F 21% 30.00 in 10.0 mi South 23.0 mph 28.8 mph N/A   Clear
3:55 PM 69.8 °F - 26.6 °F 20% 29.99 in 10.0 mi SSE 20.7 mph 26.5 mph N/A   Clear
4:15 PM 68.0 °F - 26.6 °F 21% 29.99 in 10.0 mi SSE 20.7 mph 28.8 mph N/A   Clear
4:35 PM 68.0 °F - 26.6 °F 21% 29.98 in 10.0 mi SSE 17.3 mph 26.5 mph N/A   Clear
4:55 PM 68.0 °F - 26.6 °F 21% 29.98 in 10.0 mi SSE 18.4 mph 23.0 mph N/A   Clear
5:15 PM 68.0 °F - 26.6 °F 21% 29.99 in 10.0 mi SE 15.0 mph 23.0 mph N/A   Clear
5:35 PM 66.2 °F - 28.4 °F 24% 29.99 in 10.0 mi SE 13.8 mph 19.6 mph N/A   Clear
5:55 PM 64.4 °F - 28.4 °F 26% 29.99 in 10.0 mi SE 16.1 mph 21.9 mph N/A   Clear
7:35 PM 57.2 °F - 28.4 °F 33% 30.01 in 10.0 mi SE 12.7 mph - N/A   Partly Cloudy
8:15 PM 55.4 °F - 30.2 °F 38% 30.02 in 10.0 mi SE 12.7 mph - N/A   Partly Cloudy
8:35 PM 55.4 °F - 30.2 °F 38% 30.03 in 10.0 mi SE 10.4 mph - N/A   Partly Cloudy
8:55 PM 53.6 °F - 30.2 °F 41% 30.03 in 10.0 mi SE 10.4 mph - N/A   Partly Cloudy
9:15 PM 53.6 °F - 30.2 °F 41% 30.04 in 10.0 mi SE 11.5 mph - N/A   Partly Cloudy
9:35 PM 53.6 °F - 28.4 °F 38% 30.05 in 10.0 mi SE 11.5 mph - N/A   Scattered Clouds
9:55 PM 53.6 °F - 30.2 °F 41% 30.05 in 10.0 mi SE 10.4 mph - N/A   Scattered Clouds
10:15 PM 51.8 °F - 28.4 °F 41% 30.05 in 10.0 mi SE 10.4 mph - N/A   Mostly Cloudy
10:35 PM 50.0 °F - 30.2 °F 47% 30.06 in 10.0 mi SE 10.4 mph - N/A   Mostly Cloudy
10:55 PM 50.0 °F - 30.2 °F 47% 30.05 in 10.0 mi SE 10.4 mph - N/A   Scattered Clouds
11:15 PM 50.0 °F - 30.2 °F 47% 30.06 in 10.0 mi SE 11.5 mph - N/A   Scattered Clouds
11:35 PM 50.0 °F - 28.4 °F 43% 30.05 in 10.0 mi SE 10.4 mph - N/A   Partly Cloudy
11:55 PM 50.0 °F - 30.2 °F 47% 30.06 in 10.0 mi ESE 8.1 mph - N/A   Clear